Location: Amsterdam
(30.7274°N, 84.4357°W)
Time: 11:47:19
(UTC+00:00)

Vanguard 1 Rocket - All Passes

Search period start: 16 February 2026 00:00
Search period end: 26 February 2026 00:00
Orbit: 652 x 4215 km, 34.3° (Epoch: 15 February)

Date Brightness Start Highest point End Pass type
(mag) Time Alt. Az. Time Alt. Az. Time Alt. Az.
16 Feb - 00:53:12 10° WNW 01:14:42 70° SSW 01:40:05 10° SE visible
16 Feb - 03:25:32 10° W 03:45:58 33° SW 04:04:47 10° S visible
16 Feb - 16:25:44 10° S 16:31:04 25° SE 16:39:21 10° E daylight
16 Feb - 18:47:23 10° WSW 18:55:59 82° SSE 19:13:42 10° ENE daylight
16 Feb - 21:12:27 10° W 21:25:31 79° N 21:49:54 10° E daylight
16 Feb - 23:39:13 10° WNW 23:58:05 83° SSW 00:24:45 10° ESE visible
17 Feb - 02:08:42 10° WNW 02:30:29 47° SW 02:53:01 10° SSE visible
17 Feb - 04:50:00 10° WSW 05:00:13 14° SW 05:09:43 10° SSW visible
17 Feb - 17:36:03 10° SW 17:43:01 58° SSE 17:56:37 10° ENE daylight
17 Feb - 20:00:01 10° W 20:10:29 80° N 20:31:35 10° E daylight
17 Feb - 22:25:56 10° WNW 22:41:43 86° NNE 23:07:58 10° ESE daylight
18 Feb - 00:53:39 10° WNW 01:14:21 62° SSW 01:39:31 10° SE visible
18 Feb - 03:27:01 10° W 03:45:21 26° SW 04:02:53 10° S visible
18 Feb - 16:25:31 10° SSW 16:31:00 32° SE 16:40:06 10° E daylight
18 Feb - 18:48:02 10° WSW 18:56:24 89° NNW 19:13:44 10° ENE daylight
18 Feb - 21:13:09 10° W 21:25:57 79° N 21:50:03 10° E daylight
18 Feb - 23:39:43 10° WNW 23:58:01 76° SSW 00:24:27 10° SE visible
19 Feb - 02:09:28 10° WNW 02:29:56 40° SW 02:51:47 10° SSE visible
19 Feb - 15:16:57 10° SSE 15:19:34 13° SE 15:22:43 10° ESE daylight
19 Feb - 17:36:30 10° SW 17:43:17 70° SSE 17:56:46 10° ENE daylight
19 Feb - 20:00:46 10° W 20:11:00 77° N 20:31:43 10° E daylight
19 Feb - 22:26:31 10° WNW 22:41:54 88° SSW 23:07:54 10° ESE daylight
20 Feb - 00:54:12 10° WNW 01:14:00 54° SW 01:38:41 10° SE visible
20 Feb - 03:29:20 10° W 03:44:52 20° SW 04:00:12 10° S visible
20 Feb - 16:25:36 10° SSW 16:31:05 41° SE 16:40:36 10° ENE daylight
20 Feb - 18:48:45 10° W 18:56:55 82° NNW 19:13:49 10° ENE daylight
20 Feb - 21:13:50 10° WNW 21:26:21 82° NNE 21:50:09 10° E daylight
20 Feb - 23:40:14 10° WNW 23:57:54 68° SSW 00:23:55 10° SE visible
21 Feb - 02:10:36 10° W 02:29:28 33° SW 02:50:08 10° SSE visible
21 Feb - 15:15:50 10° S 15:19:32 19° SE 15:24:31 10° E daylight
21 Feb - 17:37:05 10° WSW 17:43:42 82° SSE 17:56:54 10° ENE daylight
21 Feb - 20:01:31 10° W 20:11:33 77° N 20:31:52 10° E daylight
21 Feb - 22:27:06 10° WNW 22:42:01 82° SSW 23:07:39 10° ESE daylight
22 Feb - 00:54:55 10° WNW 01:13:41 46° SW 01:37:31 10° SSE visible
22 Feb - 03:33:16 10° WSW 03:44:36 15° SW 03:56:00 10° SSW visible
22 Feb - 16:25:54 10° SW 16:31:20 53° SSE 16:40:59 10° ENE daylight
22 Feb - 18:49:31 10° W 18:57:31 77° N 19:13:58 10° E daylight
22 Feb - 21:14:30 10° WNW 21:26:42 86° NNE 21:50:09 10° ESE daylight
22 Feb - 23:40:49 10° WNW 23:57:47 60° SSW 00:23:08 10° SE visible
23 Feb - 02:12:13 10° W 02:29:07 26° SW 02:47:56 10° S visible
23 Feb - 15:15:27 10° SSW 15:19:37 26° SE 15:25:35 10° E daylight
23 Feb - 17:37:46 10° WSW 17:44:14 88° NNW 17:57:04 10° ENE daylight
23 Feb - 20:02:17 10° W 20:12:05 78° N 20:32:02 10° E daylight
23 Feb - 22:27:40 10° WNW 22:42:08 74° SSW 23:07:12 10° SE daylight
24 Feb - 00:55:52 10° W 01:13:26 39° SW 01:36:00 10° SSE visible
24 Feb - 16:26:22 10° SW 16:31:43 67° SSE 16:41:18 10° ENE daylight
24 Feb - 18:50:19 10° W 18:58:08 74° N 19:14:10 10° E daylight
24 Feb - 21:15:09 10° WNW 21:27:01 88° SSW 21:50:02 10° ESE daylight
24 Feb - 23:41:30 10° WNW 23:57:42 52° SSW 00:22:03 10° SE visible
25 Feb - 02:14:41 10° W 02:28:57 20° SW 02:44:53 10° S visible
25 Feb - 15:15:28 10° SSW 15:19:51 35° SE 15:26:21 10° E daylight
25 Feb - 17:38:32 10° W 17:44:52 79° N 17:57:17 10° ENE daylight
25 Feb - 20:03:00 10° WNW 20:12:35 81° NNE 20:32:09 10° E daylight
25 Feb - 22:28:18 10° WNW 22:42:13 66° SSW 23:06:31 10° SE daylight
